HS6BUE-3 Weather Reports


Display with metric or nautical units.
time (UTC)temp
F
wind
direction
speed
MPH
gust
MPH
rain 1hr
in
rain 24hr
in
rain mn
in
humidity
%
barometer
mb
20260507100819 89 0 0.0 0.0 0.00 0.00 0.00 40 999.0
20260507095756 88 0 0.0 0.0 0.00 0.00 0.00 40 1000.0
20260507094733 87 0 0.0 0.0 0.00 0.00 0.00 39 999.0
20260507093710 85 0 0.0 0.0 0.00 0.00 0.00 40 999.0
20260507092647 83 0 0.0 0.0 0.00 0.00 0.00 39 999.0
20260507091625 84 0 0.0 0.0 0.00 0.00 0.00 39 1000.0
20260507090602 84 0 0.0 0.0 0.00 0.00 0.00 38 999.0
20260507085539 84 0 0.0 0.0 0.00 0.00 0.00 37 999.0
20260507084516 84 0 0.0 0.0 0.00 0.00 0.00 38 999.0
20260507083454 84 0 0.0 0.0 0.00 0.00 0.00 37 999.0
20260507082431 84 0 0.0 0.0 0.00 0.00 0.00 38 999.0
20260507081408 84 0 0.0 0.0 0.00 0.00 0.00 37 999.0
20260507080346 84 0 0.0 0.0 0.00 0.00 0.00 37 999.0
20260507075323 84 0 0.0 0.0 0.00 0.00 0.00 37 999.0
20260507074300 84 0 0.0 0.0 0.00 0.00 0.00 37 1000.0
20260507073238 84 0 0.0 0.0 0.00 0.00 0.00 37 999.0
20260507072215 84 0 0.0 0.0 0.00 0.00 0.00 37 1000.0
20260507071152 84 0 0.0 0.0 0.00 0.00 0.00 37 1000.0
20260507070129 85 0 0.0 0.0 0.00 0.00 0.00 37 1000.0
20260507065106 85 0 0.0 0.0 0.00 0.00 0.00 36 1000.0
20260507064044 85 0 0.0 0.0 0.00 0.00 0.00 36 1001.0
20260507063021 85 0 0.0 0.0 0.00 0.00 0.00 36 1001.0
20260507061958 85 0 0.0 0.0 0.00 0.00 0.00 36 1001.0
20260507060935 85 0 0.0 0.0 0.00 0.00 0.00 36 1001.0
20260507055913 85 0 0.0 0.0 0.00 0.00 0.00 36 1002.0
20260507054850 85 0 0.0 0.0 0.00 0.00 0.00 36 1002.0
20260507053827 85 0 0.0 0.0 0.00 0.00 0.00 37 1002.0
20260507052804 85 0 0.0 0.0 0.00 0.00 0.00 36 1002.0
20260507051741 85 0 0.0 0.0 0.00 0.00 0.00 37 1002.0
20260507050719 85 0 0.0 0.0 0.00 0.00 0.00 36 1003.0
20260507045656 85 0 0.0 0.0 0.00 0.00 0.00 36 1003.0
20260507044633 85 0 0.0 0.0 0.00 0.00 0.00 37 1003.0
20260507043611 84 0 0.0 0.0 0.00 0.00 0.00 36 1003.0
20260507042548 84 0 0.0 0.0 0.00 0.00 0.00 37 1003.0
20260507041525 84 0 0.0 0.0 0.00 0.00 0.00 36 1003.0
20260507040502 84 0 0.0 0.0 0.00 0.00 0.00 37 1003.0
20260507035439 84 0 0.0 0.0 0.00 0.00 0.00 36 1004.0
20260507034417 84 0 0.0 0.0 0.00 0.00 0.00 37 1004.0
20260507033354 84 0 0.0 0.0 0.00 0.00 0.00 36 1004.0
20260507032331 84 0 0.0 0.0 0.00 0.00 0.00 36 1004.0
20260507031308 84 0 0.0 0.0 0.00 0.00 0.00 36 1004.0
20260507030246 84 0 0.0 0.0 0.00 0.00 0.00 37 1004.0
20260507025223 84 0 0.0 0.0 0.00 0.00 0.00 37 1004.0
20260507024200 83 0 0.0 0.0 0.00 0.00 0.00 36 1004.0
20260507023137 84 0 0.0 0.0 0.00 0.00 0.00 36 1004.0
20260507022114 84 0 0.0 0.0 0.00 0.00 0.00 36 1004.0
20260507021052 84 0 0.0 0.0 0.00 0.00 0.00 36 1004.0
20260507020029 84 0 0.0 0.0 0.00 0.00 0.00 36 1004.0
20260507015006 84 0 0.0 0.0 0.00 0.00 0.00 37 1004.0
20260507013943 85 0 0.0 0.0 0.00 0.00 0.00 37 1004.0
20260507012920 85 0 0.0 0.0 0.00 0.00 0.00 38 1004.0
20260507011858 85 0 0.0 0.0 0.00 0.00 0.00 38 1004.0
20260507010835 86 0 0.0 0.0 0.00 0.00 0.00 40 1004.0
20260507005812 86 0 0.0 0.0 0.00 0.00 0.00 42 1004.0
20260507004749 87 0 0.0 0.0 0.00 0.00 0.00 44 1004.0
20260507003726 88 0 0.0 0.0 0.00 0.00 0.00 48 1004.0
20260507002704 91 0 0.0 0.0 0.00 0.00 0.00 50 1004.0
20260507001641 91 0 0.0 0.0 0.00 0.00 0.00 50 1003.0
20260507000618 90 0 0.0 0.0 0.00 0.00 0.00 50 1004.0
20260506235556 90 0 0.0 0.0 0.00 0.00 0.00 51 1003.0
20260506234533 90 0 0.0 0.0 0.00 0.00 0.00 50 1003.0
20260506233511 89 0 0.0 0.0 0.00 0.00 0.00 50 1003.0
20260506232448 89 0 0.0 0.0 0.00 0.00 0.00 51 1003.0
20260506231425 91 0 0.0 0.0 0.00 0.00 0.00 54 1003.0
20260506230402 91 0 0.0 0.0 0.00 0.00 0.00 54 1003.0
20260506225340 91 0 0.0 0.0 0.00 0.00 0.00 54 1003.0
20260506224317 91 0 0.0 0.0 0.00 0.00 0.00 54 1003.0
20260506223254 91 0 0.0 0.0 0.00 0.00 0.00 54 1003.0
20260506222232 91 0 0.0 0.0 0.00 0.00 0.00 54 1003.0
20260506221209 91 0 0.0 0.0 0.00 0.00 0.00 54 1003.0
20260506220146 91 0 0.0 0.0 0.00 0.00 0.00 53 1003.0
20260506215124 91 0 0.0 0.0 0.00 0.00 0.00 53 1003.0
20260506214101 91 0 0.0 0.0 0.00 0.00 0.00 53 1002.0
20260506213039 91 0 0.0 0.0 0.00 0.00 0.00 54 1002.0
20260506212016 91 0 0.0 0.0 0.00 0.00 0.00 54 1002.0
20260506210953 91 0 0.0 0.0 0.00 0.00 0.00 54 1002.0
20260506205930 91 0 0.0 0.0 0.00 0.00 0.00 54 1002.0
20260506204908 91 0 0.0 0.0 0.00 0.00 0.00 54 1002.0
20260506203845 91 0 0.0 0.0 0.00 0.00 0.00 53 1002.0
20260506202822 91 0 0.0 0.0 0.00 0.00 0.00 53 1002.0
20260506201800 91 0 0.0 0.0 0.00 0.00 0.00 54 1001.0
20260506200737 91 0 0.0 0.0 0.00 0.00 0.00 54 1001.0
20260506195715 91 0 0.0 0.0 0.00 0.00 0.00 53 1002.0
20260506194652 91 0 0.0 0.0 0.00 0.00 0.00 54 1002.0
20260506193629 91 0 0.0 0.0 0.00 0.00 0.00 53 1002.0
20260506192607 91 0 0.0 0.0 0.00 0.00 0.00 53 1002.0
20260506191544 91 0 0.0 0.0 0.00 0.00 0.00 53 1002.0
20260506190521 91 0 0.0 0.0 0.00 0.00 0.00 55 1001.0
20260506185459 91 0 0.0 0.0 0.00 0.00 0.00 53 1001.0
20260506184436 91 0 0.0 0.0 0.00 0.00 0.00 54 1001.0
20260506183413 91 0 0.0 0.0 0.00 0.00 0.00 51 1002.0
20260506182351 91 0 0.0 0.0 0.00 0.00 0.00 51 1002.0
20260506181328 91 0 0.0 0.0 0.00 0.00 0.00 51 1002.0
20260506180305 91 0 0.0 0.0 0.00 0.00 0.00 52 1002.0
20260506175243 91 0 0.0 0.0 0.00 0.00 0.00 51 1002.0
20260506174220 91 0 0.0 0.0 0.00 0.00 0.00 50 1002.0
20260506173158 91 0 0.0 0.0 0.00 0.00 0.00 50 1002.0
20260506172135 91 0 0.0 0.0 0.00 0.00 0.00 50 1002.0
20260506171112 91 0 0.0 0.0 0.00 0.00 0.00 50 1002.0
20260506170049 91 0 0.0 0.0 0.00 0.00 0.00 49 1003.0
20260506165027 91 0 0.0 0.0 0.00 0.00 0.00 49 1003.0
20260506164004 91 0 0.0 0.0 0.00 0.00 0.00 49 1003.0
20260506162942 91 0 0.0 0.0 0.00 0.00 0.00 49 1003.0
20260506161919 91 0 0.0 0.0 0.00 0.00 0.00 48 1003.0
20260506160856 91 0 0.0 0.0 0.00 0.00 0.00 48 1003.0
20260506155834 91 0 0.0 0.0 0.00 0.00 0.00 48 1003.0
20260506154811 91 0 0.0 0.0 0.00 0.00 0.00 47 1003.0
20260506153748 91 0 0.0 0.0 0.00 0.00 0.00 47 1003.0
20260506152726 91 0 0.0 0.0 0.00 0.00 0.00 47 1003.0
20260506151703 91 0 0.0 0.0 0.00 0.00 0.00 46 1002.0
20260506150640 91 0 0.0 0.0 0.00 0.00 0.00 46 1002.0
20260506145618 91 0 0.0 0.0 0.00 0.00 0.00 46 1002.0
20260506144555 91 0 0.0 0.0 0.00 0.00 0.00 46 1002.0
20260506143532 91 0 0.0 0.0 0.00 0.00 0.00 46 1002.0
20260506142510 91 0 0.0 0.0 0.00 0.00 0.00 46 1002.0
20260506141447 91 0 0.0 0.0 0.00 0.00 0.00 45 1002.0
20260506140425 91 0 0.0 0.0 0.00 0.00 0.00 45 1002.0
20260506135402 91 0 0.0 0.0 0.00 0.00 0.00 45 1002.0
20260506134339 91 0 0.0 0.0 0.00 0.00 0.00 45 1001.0
20260506133317 91 0 0.0 0.0 0.00 0.00 0.00 45 1001.0
20260506132254 91 0 0.0 0.0 0.00 0.00 0.00 45 1001.0
20260506131231 91 0 0.0 0.0 0.00 0.00 0.00 44 1001.0
20260506130208 91 0 0.0 0.0 0.00 0.00 0.00 44 1000.0
20260506125146 91 0 0.0 0.0 0.00 0.00 0.00 44 1000.0
20260506124123 91 0 0.0 0.0 0.00 0.00 0.00 44 1000.0
20260506123100 91 0 0.0 0.0 0.00 0.00 0.00 44 1000.0
20260506122038 91 0 0.0 0.0 0.00 0.00 0.00 44 1000.0
20260506121015 91 0 0.0 0.0 0.00 0.00 0.00 43 1000.0
20260506115952 91 0 0.0 0.0 0.00 0.00 0.00 43 1000.0
20260506114930 91 0 0.0 0.0 0.00 0.00 0.00 43 1000.0
20260506113907 91 0 0.0 0.0 0.00 0.00 0.00 43 1000.0
20260506112845 91 0 0.0 0.0 0.00 0.00 0.00 42 999.0
20260506111822 91 0 0.0 0.0 0.00 0.00 0.00 42 999.0
20260506110759 90 0 0.0 0.0 0.00 0.00 0.00 42 999.0
20260506105736 90 0 0.0 0.0 0.00 0.00 0.00 42 999.0
20260506104714 90 0 0.0 0.0 0.00 0.00 0.00 42 999.0
20260506103651 90 0 0.0 0.0 0.00 0.00 0.00 41 999.0
20260506102628 88 0 0.0 0.0 0.00 0.00 0.00 42 999.0